Location: Bruderhein
(53.8035°N, 112.9265°W)
Time: 08:54:29
(UTC+00:00)

TIGRISAT - Pass Details

Date: 08 April 2023
Orbit: 599 x 682 km, 97.7° (Epoch: 02 June)

Event Time Altitude Azimuth Distance (km) Brightness Sun altitude
Rises 02:57:37 0° 6° (N) 3,064 ? -6.3°
Reaches altitude 10° 03:00:22 10° 350° (N) 2,143 ? -6.7°
Maximum altitude 03:03:45 20° 304° (WNW) 1,560 ? -7.2°
Drops below altitude 10° 03:07:06 10° 257° (WSW) 2,119 ? -7.6°
Sets 03:09:48 0° 241° (WSW) 3,020 ? -8.0°
